Time,TemperatureF,DewpointF,PressureIn,WindDirection,WindDirectionDegrees,WindSpeedMPH,WindSpeedGustMPH,Humidity,HourlyPrecipIn,Conditions,Clouds,dailyrainin,SoftwareType,DateUTC
2013-01-20 00:04:00,36.3,30.7,30.05,West,270,2.2,-999.0,80,-99.99,,,0.00,Acu-Link.com,2013-01-20 05:04:00,
2013-01-20 00:19:00,34.3,29.7,30.04,WNW,292,0.0,-999.0,83,-99.99,,,0.00,Acu-Link.com,2013-01-20 05:19:00,
2013-01-20 00:35:00,33.1,29.4,30.04,South,180,0.0,-999.0,86,-99.99,,,0.00,Acu-Link.com,2013-01-20 05:35:00,
2013-01-20 00:50:00,32.0,29.4,30.04,SE,135,0.0,-999.0,90,-99.99,,,0.00,Acu-Link.com,2013-01-20 05:50:00,
2013-01-20 01:05:00,30.7,28.4,30.03,SSW,202,0.0,-999.0,91,-99.99,,,0.00,Acu-Link.com,2013-01-20 06:05:00,
2013-01-20 01:20:00,30.6,28.6,30.04,South,180,0.0,-999.0,92,-99.99,,,0.00,Acu-Link.com,2013-01-20 06:20:00,
2013-01-20 01:35:00,30.4,28.9,30.04,NE,45,0.0,-999.0,94,-99.99,,,0.00,Acu-Link.com,2013-01-20 06:35:00,
2013-01-20 01:50:00,29.7,27.7,30.04,NNE,22,0.0,-999.0,92,-99.99,,,0.00,Acu-Link.com,2013-01-20 06:50:00,
2013-01-20 02:05:00,28.9,27.9,30.03,WNW,292,0.0,-999.0,96,-99.99,,,0.00,Acu-Link.com,2013-01-20 07:05:00,
2013-01-20 02:20:00,29.1,28.4,30.04,NE,45,1.1,-999.0,97,-99.99,,,0.00,Acu-Link.com,2013-01-20 07:20:00,
2013-01-20 02:35:00,28.8,28.1,30.04,WNW,292,2.2,-999.0,97,-99.99,,,0.00,Acu-Link.com,2013-01-20 07:35:00,
2013-01-20 02:51:00,28.8,28.1,30.05,NNE,22,0.0,-999.0,97,-99.99,,,0.00,Acu-Link.com,2013-01-20 07:51:00,
2013-01-20 03:21:00,28.2,27.7,30.04,WNW,292,0.0,-999.0,98,-99.99,,,0.00,Acu-Link.com,2013-01-20 08:21:00,
2013-01-20 03:36:00,28.0,27.5,30.05,East,90,0.0,-999.0,98,-99.99,,,0.00,Acu-Link.com,2013-01-20 08:36:00,
2013-01-20 03:51:00,27.7,27.0,30.05,NW,315,0.0,-999.0,97,-99.99,,,0.00,Acu-Link.com,2013-01-20 08:51:00,
2013-01-20 04:15:00,27.5,27.0,30.04,East,90,0.0,-999.0,98,-99.99,,,0.00,Acu-Link.com,2013-01-20 09:15:00,
2013-01-20 04:30:00,27.9,27.4,30.04,NNW,337,0.0,-999.0,98,-99.99,,,0.00,Acu-Link.com,2013-01-20 09:30:00,
2013-01-20 04:45:00,27.5,27.3,30.04,NW,315,0.0,-999.0,99,-99.99,,,0.00,Acu-Link.com,2013-01-20 09:45:00,
2013-01-20 05:00:00,27.3,26.8,30.03,ENE,67,0.0,-999.0,98,-99.99,,,0.00,Acu-Link.com,2013-01-20 10:00:00,
2013-01-20 05:15:00,27.0,26.5,30.03,NW,315,0.0,-999.0,98,-99.99,,,0.00,Acu-Link.com,2013-01-20 10:15:00,
2013-01-20 05:31:00,26.6,26.1,30.03,NW,315,0.0,-999.0,98,-99.99,,,0.00,Acu-Link.com,2013-01-20 10:31:00,
2013-01-20 05:46:00,26.8,26.6,30.03,NW,315,0.0,-999.0,99,-99.99,,,0.00,Acu-Link.com,2013-01-20 10:46:00,
2013-01-20 06:01:00,26.6,26.4,30.03,NW,315,0.0,-999.0,99,-99.99,,,0.00,Acu-Link.com,2013-01-20 11:01:00,
2013-01-20 06:16:00,26.6,26.4,30.04,NW,315,0.0,-999.0,99,-99.99,,,0.00,Acu-Link.com,2013-01-20 11:16:00,
2013-01-20 06:31:00,27.0,26.8,30.04,NNE,22,1.1,-999.0,99,-99.99,,,0.00,Acu-Link.com,2013-01-20 11:31:00,
2013-01-20 06:46:00,26.8,26.6,30.04,NNE,22,0.0,-999.0,99,-99.99,,,0.00,Acu-Link.com,2013-01-20 11:46:00,
2013-01-20 07:01:00,26.2,26.0,30.03,WNW,292,1.7,-999.0,99,-99.99,,,0.00,Acu-Link.com,2013-01-20 12:01:00,
2013-01-20 07:16:00,26.1,25.6,30.05,WNW,292,0.0,-999.0,98,-99.99,,,0.00,Acu-Link.com,2013-01-20 12:16:00,
2013-01-20 07:31:00,25.5,25.0,30.06,WNW,292,0.0,-999.0,98,-99.99,,,0.00,Acu-Link.com,2013-01-20 12:31:00,
2013-01-20 07:47:00,25.5,25.0,30.05,WNW,292,0.0,-999.0,98,-99.99,,,0.00,Acu-Link.com,2013-01-20 12:47:00,
2013-01-20 08:02:00,25.7,25.2,30.05,WNW,292,0.0,-999.0,98,-99.99,,,0.00,Acu-Link.com,2013-01-20 13:02:00,
2013-01-20 08:17:00,25.9,25.4,30.07,WNW,292,0.0,-999.0,98,-99.99,,,0.00,Acu-Link.com,2013-01-20 13:17:00,
2013-01-20 08:32:00,27.7,27.5,30.07,WNW,292,0.0,-999.0,99,-99.99,,,0.00,Acu-Link.com,2013-01-20 13:32:00,
2013-01-20 08:47:00,31.6,30.1,30.06,WNW,292,0.0,-999.0,94,-99.99,,,0.00,Acu-Link.com,2013-01-20 13:47:00,
2013-01-20 09:02:00,34.0,30.5,30.07,SE,135,0.0,-999.0,87,-99.99,,,0.00,Acu-Link.com,2013-01-20 14:02:00,
2013-01-20 09:18:00,36.9,32.5,30.06,SE,135,0.0,-999.0,84,-99.99,,,0.00,Acu-Link.com,2013-01-20 14:18:00,
2013-01-20 09:33:00,39.9,34.6,30.05,SE,135,0.0,-999.0,81,-99.99,,,0.00,Acu-Link.com,2013-01-20 14:33:00,
2013-01-20 09:48:00,43.2,36.2,30.05,SSE,157,0.0,-999.0,76,-99.99,,,0.00,Acu-Link.com,2013-01-20 14:48:00,
2013-01-20 10:03:00,46.0,37.5,30.04,SE,135,0.0,-999.0,72,-99.99,,,0.00,Acu-Link.com,2013-01-20 15:03:00,
2013-01-20 10:18:00,49.5,39.0,30.04,ESE,112,2.7,-999.0,67,-99.99,,,0.00,Acu-Link.com,2013-01-20 15:18:00,
2013-01-20 10:33:00,51.1,40.1,30.03,SSE,157,1.7,-999.0,66,-99.99,,,0.00,Acu-Link.com,2013-01-20 15:33:00,
2013-01-20 10:48:00,52.9,38.1,30.04,SE,135,3.2,-999.0,57,-99.99,,,0.00,Acu-Link.com,2013-01-20 15:48:00,
2013-01-20 11:03:00,54.0,36.8,30.03,SSW,202,1.7,-999.0,52,-99.99,,,0.00,Acu-Link.com,2013-01-20 16:03:00,
2013-01-20 11:18:00,56.7,36.2,30.03,SSW,202,2.7,-999.0,46,-99.99,,,0.00,Acu-Link.com,2013-01-20 16:18:00,
2013-01-20 11:34:00,57.0,37.0,30.03,West,270,3.2,-999.0,47,-99.99,,,0.00,Acu-Link.com,2013-01-20 16:34:00,
2013-01-20 11:49:00,58.5,36.7,30.01,SE,135,2.2,-999.0,44,-99.99,,,0.00,Acu-Link.com,2013-01-20 16:49:00,
2013-01-20 12:04:00,57.9,38.3,30.00,SE,135,4.2,-999.0,48,-99.99,,,0.00,Acu-Link.com,2013-01-20 17:04:00,
2013-01-20 12:19:00,59.2,39.0,29.98,ESE,112,3.2,-999.0,47,-99.99,,,0.00,Acu-Link.com,2013-01-20 17:19:00,
2013-01-20 12:34:00,58.6,36.8,29.97,South,180,2.2,-999.0,44,-99.99,,,0.00,Acu-Link.com,2013-01-20 17:34:00,
2013-01-20 12:49:00,61.2,39.1,29.97,West,270,4.2,-999.0,44,-99.99,,,0.00,Acu-Link.com,2013-01-20 17:49:00,
2013-01-20 13:04:00,62.8,39.4,29.95,WNW,292,3.2,-999.0,42,-99.99,,,0.00,Acu-Link.com,2013-01-20 18:04:00,
2013-01-20 13:19:00,65.1,39.5,29.94,SSW,202,3.7,-999.0,39,-99.99,,,0.00,Acu-Link.com,2013-01-20 18:19:00,
2013-01-20 13:34:00,64.0,37.2,29.93,SSW,202,5.3,-999.0,37,-99.99,,,0.00,Acu-Link.com,2013-01-20 18:34:00,
2013-01-20 13:50:00,64.2,36.7,29.93,East,90,2.2,-999.0,36,-99.99,,,0.00,Acu-Link.com,2013-01-20 18:50:00,
2013-01-20 14:05:00,65.3,36.9,29.92,NW,315,1.7,-999.0,35,-99.99,,,0.00,Acu-Link.com,2013-01-20 19:05:00,
2013-01-20 14:20:00,66.6,36.6,29.92,SE,135,3.2,-999.0,33,-99.99,,,0.00,Acu-Link.com,2013-01-20 19:20:00,
2013-01-20 14:35:00,66.9,37.6,29.92,West,270,4.7,-999.0,34,-99.99,,,0.00,Acu-Link.com,2013-01-20 19:35:00,
2013-01-20 14:50:00,65.1,34.5,29.91,SSE,157,4.7,-999.0,32,-99.99,,,0.00,Acu-Link.com,2013-01-20 19:50:00,
2013-01-20 15:07:00,64.2,36.7,29.94,NNW,337,3.7,-999.0,36,-99.99,,,0.00,Acu-Link.com,2013-01-20 20:07:00,
2013-01-20 15:26:00,66.0,36.8,29.94,SE,135,2.2,-999.0,34,-99.99,,,0.00,Acu-Link.com,2013-01-20 20:26:00,
2013-01-20 15:44:00,64.8,34.2,29.94,SE,135,1.7,-999.0,32,-99.99,,,0.00,Acu-Link.com,2013-01-20 20:44:00,
2013-01-20 16:25:00,65.5,36.4,29.95,WSW,247,1.1,-999.0,34,-99.99,,,0.00,Acu-Link.com,2013-01-20 21:25:00,
2013-01-20 16:44:00,60.8,32.3,29.96,South,180,1.1,-999.0,34,-99.99,,,0.00,Acu-Link.com,2013-01-20 21:44:00,
2013-01-20 16:59:00,57.0,31.0,29.95,WNW,292,3.2,-999.0,37,-99.99,,,0.00,Acu-Link.com,2013-01-20 21:59:00,
2013-01-20 17:15:00,55.6,30.4,29.96,West,270,0.0,-999.0,38,-99.99,,,0.00,Acu-Link.com,2013-01-20 22:15:00,
2013-01-20 17:30:00,53.6,30.5,29.96,NW,315,1.1,-999.0,41,-99.99,,,0.00,Acu-Link.com,2013-01-20 22:30:00,
2013-01-20 17:45:00,50.9,31.4,29.97,West,270,2.2,-999.0,47,-99.99,,,0.00,Acu-Link.com,2013-01-20 22:45:00,
2013-01-20 18:00:00,49.5,28.5,29.97,NNW,337,1.7,-999.0,44,-99.99,,,0.00,Acu-Link.com,2013-01-20 23:00:00,
2013-01-20 18:15:00,47.5,32.1,29.97,West,270,2.2,-999.0,55,-99.99,,,0.00,Acu-Link.com,2013-01-20 23:15:00,
2013-01-20 18:30:00,44.2,31.6,29.98,West,270,1.7,-999.0,61,-99.99,,,0.00,Acu-Link.com,2013-01-20 23:30:00,
2013-01-20 18:46:00,42.8,30.3,29.98,West,270,0.0,-999.0,61,-99.99,,,0.00,Acu-Link.com,2013-01-20 23:46:00,
2013-01-20 19:01:00,40.6,30.9,29.98,West,270,0.0,-999.0,68,-99.99,,,0.00,Acu-Link.com,2013-01-21 00:01:00,
2013-01-20 19:16:00,39.4,31.1,29.99,West,270,0.0,-999.0,72,-99.99,,,0.00,Acu-Link.com,2013-01-21 00:16:00,
2013-01-20 19:31:00,37.2,30.7,29.99,West,270,1.7,-999.0,77,-99.99,,,0.00,Acu-Link.com,2013-01-21 00:31:00,
2013-01-20 19:46:00,36.5,30.3,29.98,West,270,0.0,-999.0,78,-99.99,,,0.00,Acu-Link.com,2013-01-21 00:46:00,
2013-01-20 20:16:00,34.5,30.2,29.98,West,270,0.0,-999.0,84,-99.99,,,0.00,Acu-Link.com,2013-01-21 01:16:00,
2013-01-20 20:32:00,33.8,30.1,29.99,West,270,0.0,-999.0,86,-99.99,,,0.00,Acu-Link.com,2013-01-21 01:32:00,
2013-01-20 20:47:00,32.9,28.9,29.99,West,270,0.0,-999.0,85,-99.99,,,0.00,Acu-Link.com,2013-01-21 01:47:00,
2013-01-20 21:02:00,32.4,28.7,29.99,West,270,0.0,-999.0,86,-99.99,,,0.00,Acu-Link.com,2013-01-21 02:02:00,
2013-01-20 21:17:00,31.3,28.7,29.99,West,270,0.0,-999.0,90,-99.99,,,0.00,Acu-Link.com,2013-01-21 02:17:00,
2013-01-20 21:32:00,30.7,27.8,29.99,West,270,0.0,-999.0,89,-99.99,,,0.00,Acu-Link.com,2013-01-21 02:32:00,
2013-01-20 21:47:00,30.4,28.1,29.99,West,270,1.1,-999.0,91,-99.99,,,0.00,Acu-Link.com,2013-01-21 02:47:00,
2013-01-20 22:03:00,30.2,27.9,29.99,West,270,0.0,-999.0,91,-99.99,,,0.00,Acu-Link.com,2013-01-21 03:03:00,
2013-01-20 22:18:00,29.7,28.2,29.99,West,270,1.7,-999.0,94,-99.99,,,0.00,Acu-Link.com,2013-01-21 03:18:00,
2013-01-20 22:33:00,29.3,28.0,29.99,West,270,2.2,-999.0,95,-99.99,,,0.00,Acu-Link.com,2013-01-21 03:33:00,
2013-01-20 22:48:00,29.1,27.9,30.00,West,270,0.0,-999.0,95,-99.99,,,0.00,Acu-Link.com,2013-01-21 03:48:00,
2013-01-20 23:03:00,28.9,27.7,30.01,West,270,2.2,-999.0,95,-99.99,,,0.00,Acu-Link.com,2013-01-21 04:03:00,
2013-01-20 23:19:00,28.6,27.4,30.00,West,270,0.0,-999.0,95,-99.99,,,0.00,Acu-Link.com,2013-01-21 04:19:00,
2013-01-20 23:34:00,28.2,27.0,30.00,West,270,1.7,-999.0,95,-99.99,,,0.00,Acu-Link.com,2013-01-21 04:34:00,
2013-01-20 23:49:00,28.0,27.0,29.99,West,270,2.7,-999.0,96,-99.99,,,0.00,Acu-Link.com,2013-01-21 04:49:00,